2019-03-06T11:06:02+01:00 GET /shop/termek/_dcr1115_s_b/1019755 HTTP/1.1
2019-03-06T13:36:18+01:00 GET /shop/termek/apple-magic-trackpad-2/1295261 HTTP/1.1
2019-03-07T21:26:40+01:00 GET /shop/termek/panduit-cjs6x88tgy24/1184691 HTTP/1.1
2019-03-08T00:33:36+01:00 GET /shop/termek/sony_kd_65xe7005_65/1587505 HTTP/1.1
2019-03-08T02:50:31+01:00 GET /webshop/product/apc_ap9630/134229 HTTP/1.1
2019-03-08T08:57:51+01:00 GET /shop/termek/lian-li-pcv1000lb/1573476 HTTP/1.1
2019-03-08T09:44:46+01:00 GET /webshop/product/levelone_cas_2702/1574674 HTTP/1.1
2019-03-08T10:58:57+01:00 GET /?slug=megjelenitok|monitor|23-24&add_diff=1426836 HTTP/1.1
2019-03-08T15:58:06+01:00 GET /shop/termek/natec_kit._10_black/558939 HTTP/1.1
2019-03-08T18:32:04+01:00 GET /?slug=szorakoztatas|radio&p=2&add_diff=431188 HTTP/1.1
2019-03-08T20:28:17+01:00 GET /shop/termek/orion-obls5381-silver/1478039 HTTP/1.1
2019-03-09T01:46:00+01:00 GET /shop/termek/cherry-mc-2000-black/1081546 HTTP/1.1
2019-03-11T06:30:28+01:00 GET /shop/termek/genius-dx120-kek/1357412 HTTP/1.1
2019-03-11T09:35:49+01:00 GET /webshop/group/konyv_hangoskonyv/18207/?listtype=2 HTTP/1.1
2019-03-11T10:33:05+01:00 GET /shop/termek/razer-kraken-mobile-neon-narancssarga/1321113 HTTP/1.1
2019-03-11T17:32:08+01:00 GET /shop/termek/hama-hk2114-red/1035475 HTTP/1.1
2019-03-12T05:01:09+01:00 GET /magazin/cikk/dropbox-integracioval-erosit-a-gmail HTTP/1.1
2019-03-12T06:56:12+01:00 GET /_userfiles/Image/Morte/osmium/kabelek_tartozekok_n.jpg HTTP/1.1
2019-03-12T09:28:13+01:00 GET /shop/termek/konig-havpr23-portable-radio-wake-up-function/1558662 HTTP/1.1
2019-03-12T12:06:16+01:00 GET /?slug=megjelenitok|monitor|30-39&add_diff=1376699 HTTP/1.1
2019-03-13T01:25:19+01:00 GET /shop/csoport/tv-monitor-projektor-vr/televizio?540=0 HTTP/1.1
2019-03-13T03:19:36+01:00 GET /shop/csoport/szamitogep-periferia-gamer/gamer-szek?78=2202 HTTP/1.1
2019-03-13T16:19:02+01:00 GET /shop/termek/asus-ut280-piros/1513441 HTTP/1.1
2019-03-13T18:21:58+01:00 GET /shop/csoport/szamitogep-alkatresz/haz?629=1 HTTP/1.1
2019-03-14T03:23:35+01:00 GET /magazin/cikk/northgard-settlers-viking-kontosben HTTP/1.1
2019-03-14T03:55:35+01:00 GET /shop/termek/orion-omp-09-green/1010921 HTTP/1.1
2019-03-14T12:26:36+01:00 GET /shop/termek/canyon_cnd_sgm4n_black/1471207 HTTP/1.1
2019-03-14T16:54:06+01:00 GET /shop/termek/hp_b6y33a_multi_original/1555435 HTTP/1.1
2019-03-14T17:37:46+01:00 GET /?slug=megjelenitok|monitor&p=13&add_diff=1600040 HTTP/1.1
2019-03-14T20:22:01+01:00 GET /shop/termek/ciesta_azalea_kamerapant/1353237 HTTP/1.1
2019-03-14T21:40:52+01:00 GET /magazin/cikk/soma-merenges-az-embersegrol-es-az-emberisegrol HTTP/1.1
2019-03-14T23:12:36+01:00 GET /?slug=szamitogep-komponens|huto&add_diff=134064 HTTP/1.1
2019-03-15T04:37:57+01:00 GET /shop/termek/jbl-flip-3-fekete/1447330 HTTP/1.1
2019-03-15T04:38:17+01:00 GET /?group_id=15144&srcFtr_479=6369&add_diff=542087 HTTP/1.1
2019-03-15T05:15:38+01:00 GET /_userfiles/Image/Dragon83/Metro%202033/metro3.jpg HTTP/1.1
2019-03-17T13:05:22+01:00 GET /webshop/group/utangyartott_patron___toner/693/57 HTTP/1.1
2019-03-17T15:39:36+01:00 GET /shop/termek/sony-playstation-4-slim-500gb-fekete/1504975 HTTP/1.1
2019-03-17T15:51:06+01:00 GET /magazin/cikk/ingyenes-a-gog-on-a-full-throttle-remastered HTTP/1.1
2019-03-17T17:31:00+01:00 GET /?slug=szamitogep-tartozek|kabel&p=220&add_diff=1244019 HTTP/1.1
2019-03-17T21:32:02+01:00 GET /shop/termek/samsung-clpk300a-colorovo/343180 HTTP/1.1
2019-03-17T21:43:00+01:00 GET /shop/termek/hp-ce285a-x-10-pcs-colorovo/528505 HTTP/1.1
2019-03-17T21:43:02+01:00 GET /magazin/cikk/xcom-2-az-idegenektol-feltunk HTTP/1.1
2019-03-18T05:04:47+01:00 GET /shop/termek/seagate-barracuda-1tb-35-7200-rpm-64-mb-sata-3-st1000dm003/191381 HTTP/1.1
2019-03-18T07:58:58+01:00 GET /?slug=halozat|vezetekes&p=15&add_diff=33680&listorder=5 HTTP/1.1
2019-03-18T12:08:50+01:00 GET /shop/termek/dji-roninm/1580188 HTTP/1.1
2019-03-18T18:04:31+01:00 GET /?slug=szerver|merevlemez-1&add_diff=1235964&listorder=5 HTTP/1.1
2019-03-18T19:03:54+01:00 GET /?slug=haztartas|konyhai-kisgepek&p=20&add_diff=1492144 HTTP/1.1
2019-03-18T19:09:23+01:00 GET /?slug=szorakoztatas|radio&add_diff=1599960&listorder=2 HTTP/1.1
2019-03-18T20:33:49+01:00 GET /webshop/tag/szamitogep-tartozek/kabel/p244?listlimit=50 HTTP/1.1
2019-03-18T20:52:21+01:00 GET /shop/termek/axis-p32-casing-a-crno-5db/1583933 HTTP/1.1
2019-03-18T21:06:14+01:00 GET /webshop/product/amd_opteron_dodeca_core_6344_2.6ghz/354043 HTTP/1.1
2019-03-18T23:46:06+01:00 GET /shop/termek/htc_u_play_5.2_32gb_blue/1570329 HTTP/1.1
2019-03-19T02:47:19+01:00 GET /shop/termek/playseat_gearshift_support/666854 HTTP/1.1
2019-03-19T04:42:10+01:00 GET /shop/termek/club3d_usb_c_smart_reader/1592519 HTTP/1.1
2019-03-19T05:58:36+01:00 GET /shop/termek/asus-q87t/527241 HTTP/1.1
2019-03-19T06:08:49+01:00 GET /shop/termek/oki-44315105-drum-eredeti/192351 HTTP/1.1
2019-03-19T08:45:34+01:00 GET /webshop/product/lark_freesound_2.0_bt_bijela/936289 HTTP/1.1
2019-03-19T11:08:15+01:00 GET /shop/termek/brother-lc123cmy-eredeti/1556584 HTTP/1.1
2019-03-19T13:13:32+01:00 GET /shop/termek/gardena-311030-gyumolcsszedo/1561801 HTTP/1.1
2019-03-19T19:19:11+01:00 GET /shop/termek/asus_gx850/873247 HTTP/1.1
2019-03-19T19:54:52+01:00 GET /webshop/tag/szamitogep-tartozek/kabel/p75?listlimit=10 HTTP/1.1
2019-03-19T20:18:33+01:00 GET /?slug=irodaszer|javitas-ragasztas&add_diff=1588407 HTTP/1.1
2019-03-19T21:26:38+01:00 GET /shop/termek/3m-30-privacy-filter-for-widescreen-monitor-1610/913631 HTTP/1.1
2019-03-19T22:51:35+01:00 GET /shop/termek/akracing-igrac-saren/870943 HTTP/1.1
2019-03-19T23:16:30+01:00 GET /shop/termek/hp-c4092a-ikona/1548623 HTTP/1.1
2019-03-19T23:44:35+01:00 GET /?slug=szerver|tartozekok&add_diff=1477865&listlimit=10 HTTP/1.1
2019-03-20T01:53:13+01:00 GET /shop/termek/thermaltake-cronos-combat-bijela/520772 HTTP/1.1
2019-03-20T03:59:51+01:00 GET /?slug=irodaszer|munkavedelem&p=15&add_diff=1587951 HTTP/1.1
2019-03-20T04:13:04+01:00 GET /?slug=szamitogep-tartozek|kabel&p=171&add_diff=1477920 HTTP/1.1
2019-03-20T04:36:28+01:00 GET /?slug=haztartas|konyhai-kisgepek&p=25&add_diff=1532106 HTTP/1.1
2019-03-20T06:12:02+01:00 GET /webshop/product/raijintek_aura_12_crveno_(2db)/1594560 HTTP/1.1
2019-03-20T08:43:05+01:00 GET /webshop/product/asus_vivopc_k20cd_k_hu021t/1592428 HTTP/1.1
2019-03-20T12:07:57+01:00 GET /shop/termek/emtec_c410_32gb_usb_2.0_plavo/476017 HTTP/1.1
2019-03-20T12:49:24+01:00 GET /webshop/product/hyperx_240gb_predator_m.2_pcie_2280_shpm2280p2h_240g/1010868 HTTP/1.1
2019-03-20T13:46:23+01:00 GET /shop/termek/jbl-t450-fejhallgato-feher/1546320 HTTP/1.1
2019-03-20T14:12:59+01:00 GET /webshop/tag/szamitogep-tartozek/kabel/p214?listorder=1 HTTP/1.1
2019-03-20T15:48:02+01:00 GET /?slug=haztartas|konyhai-kisgepek&p=32&add_diff=1293483 HTTP/1.1
2019-03-20T16:20:07+01:00 GET /webshop/tag/szamitogep-tartozek/kabel/p146?listorder=1 HTTP/1.1
2019-03-20T18:01:35+01:00 GET /?slug=szamitogep-komponens|memoria&p=15&add_diff=36070 HTTP/1.1
2019-03-20T19:00:25+01:00 GET /shop/termek/huawei_p9_lite_mini_zlatna/1595442 HTTP/1.1
2019-03-20T19:08:49+01:00 GET /?slug=szamitogep-tartozek|kvm&p=3&add_diff=1602778 HTTP/1.1
2019-03-20T21:28:36+01:00 GET /?slug=szerver|merevlemez-1&add_diff=839468&listorder=0 HTTP/1.1
2019-03-20T23:47:15+01:00 GET /forum/szoftver/egyebek HTTP/1.1
2019-03-21T01:02:44+01:00 GET /shop/termek/zotac-zbox-ci527-nano-intel-core-i37100u/1583470 HTTP/1.1
2019-03-21T01:07:47+01:00 GET /shop/termek/sencor-sda510-vanjski-antenna/576183 HTTP/1.1
2019-03-21T03:12:43+01:00 GET /shop/termek/tribe-bb8-car-charger-feher/1597968 HTTP/1.1
2019-03-21T06:26:54+01:00 GET /?slug=haztartas|konyhai-kisgepek&p=34&add_diff=1596367 HTTP/1.1
2019-03-21T07:59:53+01:00 GET /webshop/tag/szamitogep-tartozek/kabel/p122?listorder=1 HTTP/1.1
2019-03-21T08:54:11+01:00 GET /shop/termek/_a_visko/257717 HTTP/1.1
2019-03-21T09:42:09+01:00 GET /webshop/product/chieftec_bdf_600s_600w/1598537 HTTP/1.1
2019-03-21T09:52:05+01:00 GET /?slug=szorakoztatas|konzol&listorder=0&add_diff=1608800 HTTP/1.1
2019-03-21T11:35:53+01:00 GET /shop/termek/saturn-sthc7390-britva/1610768 HTTP/1.1
2019-03-21T15:15:08+01:00 GET /webshop/tag/halozat/nas/4-fiokos/p2?listorder=5 HTTP/1.1
2019-03-21T15:38:58+01:00 GET /webshop/product/pny_elite_performance_64gb_compact_flash_100_mb_s_cf64geliper_ef/1055941 HTTP/1.1
2019-03-21T16:10:57+01:00 GET /shop/termek/xigmatek-maglina-c-kek/1564046 HTTP/1.1
2019-03-21T19:47:08+01:00 GET /webshop/tag/gamer/gamer-alaplap?listlimit=30 HTTP/1.1
2019-03-21T19:50:26+01:00 GET /webshop/product/kyocera_tk_3190_original/1548573 HTTP/1.1
2019-03-21T21:13:14+01:00 GET /webshop/product/img_stage_line_cd_112trs/513291 HTTP/1.1
2019-03-21T22:43:49+01:00 GET /?slug=megjelenitok|monitor&add_diff=371095&listorder=1 HTTP/1.1
2019-03-21T22:52:17+01:00 GET /?slug=haztartas|padloapolas&add_diff=1603254&listtype=1 HTTP/1.1
2019-03-22T02:22:28+01:00 GET /shop/termek/_dc0319_s_a/1019735 HTTP/1.1
2019-03-22T05:13:19+01:00 GET /webshop/product/chieftec_aps_650cb_650w_box/536365 HTTP/1.1
2019-03-22T05:50:12+01:00 GET /shop/csoport/kert-barkacs-otthon/hegesztes-forrasztas HTTP/1.1
2019-03-22T06:00:34+01:00 GET /shop/csoport/szamitogep-periferia-gamer/szmtgp-perifria-sznetmentes HTTP/1.1
2019-03-22T06:06:47+01:00 GET /shop/termek/oem-notebook-lampa-crno/1010877 HTTP/1.1
2019-03-22T06:58:35+01:00 GET /?slug=haztartas|padloapolas&add_diff=186706&listorder=4 HTTP/1.1
2019-03-22T07:14:34+01:00 GET /webshop/product/zanussi_zcv550g1wa/1404511 HTTP/1.1
2019-03-22T09:38:50+01:00 GET /magazin/cikk/erdekessegek-az-amd-kiszivargott-cpu-utiterveben HTTP/1.1
2019-03-22T11:05:59+01:00 GET /shop/termek/msi-rx-vega-64-8g-8gb-pcie/1602861 HTTP/1.1
2019-03-22T14:31:27+01:00 GET /webshop/product/oem_q_works_csipofogo_175_mm/1559475 HTTP/1.1
2019-03-22T16:14:34+01:00 GET /webshop/product/hp_ce314a_drum_original/182199 HTTP/1.1
2019-03-22T18:30:38+01:00 GET /?slug=szorakoztatas|konzol&add_diff=1314984&listtype=1 HTTP/1.1
2019-03-22T19:01:21+01:00 GET /?slug=szamitogep-tartozek|kabel&p=46&add_diff=535021 HTTP/1.1
2019-03-22T14:31:27+01:00 GET /webshop/product/oem_q_works_csipofogo_175_mm/1559475 HTTP/1.1
2019-03-22T16:14:34+01:00 GET /webshop/product/hp_ce314a_drum_original/182199 HTTP/1.1
2019-03-22T18:30:38+01:00 GET /?slug=szorakoztatas|konzol&add_diff=1314984&listtype=1 HTTP/1.1
2019-03-22T19:01:21+01:00 GET /?slug=szamitogep-tartozek|kabel&p=46&add_diff=535021 HTTP/1.1
2019-03-22T20:44:28+01:00 GET /?slug=haztartas|hutes-futes&listorder=4&add_diff=1525920 HTTP/1.1
2019-03-22T21:25:50+01:00 GET /webshop/group/ventilator_parasito_hosugarzo/18334/ HTTP/1.1
2019-03-22T22:06:49+01:00 GET /?slug=szamitogep-komponens|memoria&p=21&add_diff=1595666 HTTP/1.1
2019-03-22T22:55:03+01:00 GET /webshop/product/citizen_cl_s631/1544372 HTTP/1.1
2019-03-22T23:27:49+01:00 GET /?slug=halozat|biztonsagtechnika&p=1&add_diff=1585322 HTTP/1.1
2019-03-22T23:43:52+01:00 GET /shop/termek/fujitsu-p278-te-pro-alb/1570919 HTTP/1.1
2019-03-23T02:02:03+01:00 GET /?slug=szamitogep-komponens|tapegyseg&p=6&add_diff=178489 HTTP/1.1
2019-03-23T02:52:27+01:00 GET /webshop/product/epson_t07964010_original/22931 HTTP/1.1
2019-03-23T06:14:34+01:00 GET /?slug=szorakoztatas|erosito&listorder=5&add_diff=1599504 HTTP/1.1
2019-03-23T07:16:28+01:00 GET /?slug=szamitogep-tartozek|kabel&p=156&add_diff=1567511 HTTP/1.1
2019-03-23T10:27:26+01:00 GET /webshop/product/m_cab_utp_patch_gri_50m_3266/1556805 HTTP/1.1
2019-03-23T11:56:35+01:00 GET /shop/termek/prestigio-ptcl0107a-fekete/495845 HTTP/1.1
2019-03-23T13:36:40+01:00 GET /?slug=egyeb|szerelesi-anyagok&p=5&add_diff=1574479 HTTP/1.1
2019-03-23T16:25:31+01:00 GET /webshop/product/vanguard_vojo_25bk/363608 HTTP/1.1
2019-03-23T17:33:22+01:00 GET /shop/termek/sandisk-clip-jam-portocaliu/1235207 HTTP/1.1
2019-03-23T17:33:27+01:00 GET /webshop/product/epson_s050193_originalni/177307 HTTP/1.1
2019-03-23T17:56:53+01:00 GET /?slug=haztartas|szepsegapolas&p=28&add_diff=1597275 HTTP/1.1
2019-03-23T20:01:06+01:00 GET /shop/termek/blow-3d-glasses-vr-box/1534253 HTTP/1.1
2019-03-23T21:37:32+01:00 GET /shop/termek/techair_laptop_case_v3_17.3_crno/1586402 HTTP/1.1
2019-03-23T23:59:41+01:00 GET /shop/termek/delight_in_ear_bijela/622770 HTTP/1.1
2019-03-24T03:03:51+01:00 GET /shop/termek/electrolux-e201b-dust/1556840 HTTP/1.1
2019-03-24T03:17:07+01:00 GET /webshop/product/oki_46507307_drum_original/1556944 HTTP/1.1
2019-03-24T05:05:44+01:00 GET /webshop/product/dji_s900_part_4_frame_arm/1578384 HTTP/1.1
2019-03-24T14:55:07+01:00 GET /webshop/product/samsung_mlt_d117_(iconink)/1597549 HTTP/1.1
2019-03-24T15:51:35+01:00 GET /?slug=szamitogep-tartozek|kabel&p=205&add_diff=1236087 HTTP/1.1
2019-03-24T16:30:31+01:00 GET /shop/termek/inwin-101-ablakos-black/1593931 HTTP/1.1
2019-03-24T16:42:58+01:00 GET /shop/termek/krups_gvx242_kavedaralo/1422458 HTTP/1.1
2019-03-24T16:43:27+01:00 GET /shop/termek/elo-15e3-e292254/1612989 HTTP/1.1
2019-03-24T16:50:29+01:00 GET /shop/termek/apple_iphone_6s_128gb_grey/1280467 HTTP/1.1
2019-03-24T19:49:00+01:00 GET /shop/termek/ricoh-sp-c250y-iconink/1606732 HTTP/1.1
2019-03-24T20:26:05+01:00 GET /shop/termek/linkbasic-cfo03/352034 HTTP/1.1
2019-03-24T20:43:04+01:00 GET /webshop/product/dji_part47_bottom_gps_cover/1310372 HTTP/1.1
2019-03-24T21:03:02+01:00 GET /?slug=szorakoztatas|headset&listorder=1&add_diff=1529858 HTTP/1.1
2019-03-24T21:11:18+01:00 GET /shop/termek/hp_q6460a_originalni/31374 HTTP/1.1
2019-03-24T22:43:55+01:00 GET /shop/termek/hama-dir3600mbt/1599960 HTTP/1.1
2019-03-25T00:12:14+01:00 GET /shop/termek/arozzi-mezzo-piros/1501694 HTTP/1.1
2019-03-25T05:25:29+01:00 GET /webshop/product/bigben_hdmi_3d_kabel_bijela_2m/1081601 HTTP/1.1
2019-03-25T06:01:58+01:00 GET /webshop/product/canon_cli_571y_xl_(safir)/1474919 HTTP/1.1
2019-03-25T06:44:02+01:00 GET /magazin/cikk/kiprobalhato-a-the-crew-2 HTTP/1.1
2019-03-25T07:04:52+01:00 GET /webshop/product/lensbaby_velvet_56_f_1.6_(nikon)/1526896 HTTP/1.1
2019-03-25T07:09:36+01:00 GET /webshop/product/gallet_gri200_creon_toaster/1461371 HTTP/1.1
2019-03-25T08:36:31+01:00 GET /shop/termek/natec-locust-crno/1085275 HTTP/1.1
2019-03-25T09:17:18+01:00 GET /webshop/product/arctic_cooling_p604_wireles_crno/1389327 HTTP/1.1
2019-03-25T09:32:32+01:00 GET /webshop/product/aten_altusen_kh1508a_ax_g/366958 HTTP/1.1
2019-03-25T09:57:47+01:00 GET /webshop/product/panasonic_kx_tg6811pdb/553917 HTTP/1.1
2019-03-25T11:01:05+01:00 GET /?slug=megjelenitok|vr-virtalis-valosag&add_diff=1591219 HTTP/1.1
2019-03-25T12:17:51+01:00 GET /?searchthis=fatal&where=shop&add_diff=1591821&listtype=2 HTTP/1.1
2019-03-25T14:24:34+01:00 GET /shop/termek/optonica_st4207_led_traka/1572487 HTTP/1.1
2019-03-25T14:30:32+01:00 GET /?slug=szamitogep-periferia|multifunkcios&add_diff=188462 HTTP/1.1
2019-03-25T14:38:31+01:00 GET /shop/termek/aeg_ra_5520_olajradiator/1510135 HTTP/1.1
2019-03-25T15:35:38+01:00 GET /shop/termek/ednet_cd_slim_case_5mm_10kom/1422368 HTTP/1.1
2019-03-25T15:37:43+01:00 GET /shop/termek/qoltec-50062-power-supply/909852 HTTP/1.1
2019-03-25T15:42:43+01:00 GET /shop/termek/ricoh-sp3500-ikona/1543429 HTTP/1.1
2019-03-25T15:55:36+01:00 GET /webshop/product/kromag_7010_toyota_5.5x14/1494227 HTTP/1.1
2019-03-25T17:26:25+01:00 GET /webshop/product/hikvision_ds_2cd2t25fwd_i5_2.8mm/1573620 HTTP/1.1
2019-03-25T18:22:49+01:00 GET /?slug=konyv|gyerekjtk-tovbbi-jtkok&add_diff=1610619 HTTP/1.1
2019-03-25T18:51:00+01:00 GET /?slug=szerver|merevlemez-1&add_diff=1068013&listlimit=30 HTTP/1.1
2019-03-25T19:43:16+01:00 GET /webshop/product/synology_diskstation_ds418play/1607086 HTTP/1.1
2019-03-25T19:52:38+01:00 GET /?slug=halozat|vezetekes&p=15&add_diff=1584793&listtype=1 HTTP/1.1
2019-03-25T21:11:12+01:00 GET /shop/termek/zyxel-sfplx10d-module/207971 HTTP/1.1
2019-03-25T23:46:42+01:00 GET /?slug=notebook-tablet-asztali-gep|ebook&add_diff=957495 HTTP/1.1
2019-03-26T00:47:46+01:00 GET /shop/termek/nec-multisync-e171m-alb/709495 HTTP/1.1
2019-03-26T03:15:36+01:00 GET /shop/termek/well_cablu_fara_sonerie/1576896 HTTP/1.1
2019-03-26T03:47:46+01:00 GET /shop/termek/vertagear-sl2000-negrugri/1265225 HTTP/1.1
2019-03-26T04:17:23+01:00 GET /webshop/tag/konyv/szorakoztato-irodalom/p10 HTTP/1.1
2019-03-26T04:39:30+01:00 GET /webshop/tag/gyermekjatekok/kreativ-fejleszto?listorder=1 HTTP/1.1
2019-03-26T04:51:02+01:00 GET /webshop/product/_dgh07204_g2_h/1023461 HTTP/1.1
2019-03-26T04:56:00+01:00 GET /shop/termek/linkbasic_wcb06_645_baa_c/352021 HTTP/1.1
2019-03-26T05:03:21+01:00 GET /webshop/product/samsung_clt_k5082l_els_oem_(v7)/1526315 HTTP/1.1